Regional Weather Roundup
Issued by NWS

Home | Current Version | Previous Version | Text Only | Print | Product List | Glossary On
Versions: 1 2 3 4 5 6 7 8 9 10 11 12 13 14 15 16 17 18 19 20 21 22 23 24 25 26 27 28 29 30 31 32 33 34 35 36 37 38 39 40 41 42 43 44 45 46 47 48 49 50
000
ASUS46 KSTO 291915
RWRCA

NORTHERN AND CENTRAL CA REGIONAL WEATHER ROUNDUP
NATIONAL WEATHER SERVICE SACRAMENTO CA
1200 PM PDT FRI JUL 29 2016

NOTE: FAIR INDICATES FEW OR NO CLOUDS BELOW 12,000 FEET WITH NO
SIGNIFICANT WEATHER AND/OR OBSTRUCTIONS TO VISIBILITY.

CAZ001-003-292000-
NORTHWEST AREA

CITY           SKY/WX    TMP DP  RH WIND       PRES   REMARKS
CRESCENT CITY  SUNNY     59  53  80 S10       29.86S
UKIAH          SUNNY     91  49  23 VRB5      29.82F
$$

CAZ006-505>513-292000-
BAY AREA

CITY           SKY/WX    TMP DP  RH WIND       PRES   REMARKS
SANTA ROSA     SUNNY     76  53  44 S5        29.84F
SAN RAFAEL     N/A       70  MM  MM MISG
NAPA           SUNNY     72  56  57 SW7       29.85F
CONCORD        SUNNY     78  54  43 N10       29.83F
OAKLAND CITY   N/A       64  MM  MM MISG
OAKLAND        SUNNY     70  56  61 W10       29.86F
SAN FRAN CITY  N/A       60  MM  73 MISG
SAN FRAN ARPT  MOSUNNY   66  52  60 NW15      29.86F
LIVERMORE      SUNNY     90  52  27 NW5       29.82F
HAYWARD        SUNNY     73  55  53 W8        29.86F
REDWOOD CITY   N/A       70  MM  65 MISG
MOFFETT ARPT   SUNNY     74  58  57 N7        29.86F
SAN JOSE ARPT  MOSUNNY   79  58  48 VRB5      29.84F
$$
CAZ034-037-514>518-292000-
CENTRAL COAST

CITY           SKY/WX    TMP DP  RH WIND       PRES   REMARKS
WATSONVILLE    SUNNY     69  55  60 S9        29.87F
SALINAS        SUNNY     71  55  56 W12       29.86F
MONTEREY       PTSUNNY   64  53  67 N5        29.88F
SAN LUIS OBISP SUNNY     80  56  43 NW9       29.85F
SANTA MARIA    SUNNY     70  57  63 NW7       29.88S
$$
CAZ015-016-292000-
NORTHERN SACRAMENTO VALLEY

CITY           SKY/WX    TMP DP  RH WIND       PRES   REMARKS
REDDING        SUNNY    100  51  19 W3        29.78F HX  97
RED BLUFF      SUNNY     98  53  22 SE6       29.80F HX  96
OROVILLE       SUNNY     93  56  28 VRB3      29.82F HX  91
$$
CAZ016>018-292000-
SOUTHERN SACRAMENTO VALLEY

CITY           SKY/WX    TMP DP  RH WIND       PRES   REMARKS
BEALE AFB      SUNNY     92  54  27 W6        29.79F HX  90
LINCOLN        FAIR      95  36  12 S7        29.80S HX  90
MARYSVILLE     SUNNY     93  55  27 CALM      29.80F HX  91
SAC INTL ARPT  PTSUNNY   85  57  38 S5        29.80F
MATHER AIRPORT MOSUNNY   86  52  30 S5        29.81F
DOWNTOWN SAC   N/A       89  MM  MM MISG
SAC EXEC ARPT  SUNNY     85  56  37 VRB3      29.81F
VACAVILLE      SUNNY     94  53  25 VRB5      29.82S HX  91
TRAVIS AFB     SUNNY     86  53  32 SW12      29.79F
$$
CAZ019>021-292000-
SAN JOAQUIN VALLEY

CITY           SKY/WX    TMP DP  RH WIND       PRES   REMARKS
STOCKTON       SUNNY     95  47  19 VRB5      29.80F HX  91
MODESTO        SUNNY     96  46  18 N7        29.79F HX  92
MERCED         SUNNY     96  48  19 NW6       29.79F HX  92
LEMOORE        MOSUNNY   98  43  15 VRB6      29.80F HX  94
FRESNO         MOSUNNY   97  53  22 SE3       29.80F HX  94
HANFORD        SUNNY     99  40  13 NW6       29.80F HX  94
PORTERVILLE    SUNNY     97  50  20 VRB6      29.82F HX  94
BAKERSFIELD    SUNNY    100  45  15 NW8       29.80F HX  96
$$
CAZ011-012-071-292000-
NORTHERN MOUNTAINS

CITY           SKY/WX    TMP DP  RH WIND       PRES   REMARKS
YREKA          SUNNY     92  52  25 CALM      29.97F
MOUNT SHASTA   SUNNY     93  57  29 CALM      30.01F HX  91
ALTURAS        SUNNY     92  38  15 N6        30.08F
$$
CAZ011-012-071-292000-
SIERRA NEVADA MTNS

CITY           SKY/WX    TMP DP  RH WIND       PRES   REMARKS
BLUE CANYON    SUNNY     86  43  22 VRB5      30.19S
TRUCKEE        MOSUNNY   90  45  20 SW6       30.20F
TAHOE VLY ARPT SUNNY     82  53  36 N6        30.23F
MAMMOTH LAKES    N/A     86  34  15 W8        30.31S
$$



USA.gov is the U.S. government's official web portal to all federal, state and local government web resources and services.